Weather History for EKBI - September, 2013

Change the Weather History Date:

Monday, September 2, 2013

  Actual Average Record
Temperature  
Mean Temperature 56 °F -  
Max Temperature 60 °F 60 °F 71 °F (1999)
Min Temperature 53 °F 47 °F 37 °F (2003)
Degree Days  
Heating Degree Days 8    
Growing Degree Days 6 (Base 50)    
Moisture  
Dew Point 56 °F    
Average Humidity 94    
Maximum Humidity 100    
Minimum Humidity 88    
Precipitation  
Precipitation 0.00 in - - ()
Sea Level Pressure  
Sea Level Pressure 29.90 in    
Wind  
Wind Speed 13 mph ()    
Max Wind Speed 23 mph    
Max Gust Speed 36 mph    
Visibility 4.6 miles    
Events Rain    
Averages and records for this station are not official NWS values.
T = Trace of Precipitation, MM = Missing Value Source: Averaged Metar Reports

Daily Weather History Graph

Daily Weather History Graph

Search for Another Location

Airport or City:

Trip Planner

Search our weather history database for the weather conditions in past years. The results will help you decide how hot, cold, wet, or windy it might be!

Date:

Astronomy

Sep. 02, 2013 Rise Set
Actual Time 6:30 AM CEST 8:14 PM CEST
Civil Twilight 5:51 AM CEST 8:53 PM CEST
Nautical Twilight 5:02 AM CEST 9:41 PM CEST
Astronomical Twilight 4:06 AM CEST 10:37 PM CEST
Moon 3:11 AM CEST (9/2) 6:33 PM CEST (9/2)
Length of Visible Light 15h 02m
Length of Day
13h 44m
Waning Crescent, 9% of the Moon is Illuminated
Sep 2
Waning Crescent
Sep 5
New
Sep 12
First Quarter
Sep 19
Full
Sep 27
Last Quarter

Hourly Weather History & Observations

Time (CEST) Temp. Dew Point Humidity Pressure Visibility Wind Dir Wind Speed Gust Speed Precip Events Conditions
12:20 AM 53.6 °F 51.8 °F 94% 29.95 in 6.2 mi West 9.2 mph - N/A Rain Light Rain Showers
12:50 AM 53.6 °F 51.8 °F 94% 29.95 in 6.2 mi WSW 6.9 mph - N/A Rain Light Rain
1:20 AM 53.6 °F 51.8 °F 94% 29.95 in 6.2 mi WSW 10.4 mph - N/A Rain Light Rain
1:50 AM 53.6 °F 51.8 °F 94% 29.92 in 6.2 mi West 10.4 mph - N/A Rain Light Rain
2:20 AM 53.6 °F 51.8 °F 94% 29.92 in 6.2 mi West 10.4 mph - N/A Rain Light Rain
2:50 AM 53.6 °F 50.0 °F 88% 29.92 in 6.2 mi West 12.7 mph - N/A Rain Light Rain
3:20 AM 53.6 °F 50.0 °F 88% 29.92 in 6.2 mi West 12.7 mph - N/A Rain Light Rain
3:50 AM 53.6 °F 51.8 °F 94% 29.89 in 6.2 mi WSW 10.4 mph - N/A Rain Light Rain
4:20 AM 53.6 °F 51.8 °F 94% 29.89 in 6.2 mi WSW 10.4 mph - N/A Rain Light Rain
4:50 AM 53.6 °F 51.8 °F 94% 29.86 in 6.2 mi WSW 11.5 mph - N/A Rain Light Rain
5:20 AM 53.6 °F 51.8 °F 94% 29.86 in 6.2 mi West 12.7 mph - N/A Rain Light Rain
5:50 AM 53.6 °F 51.8 °F 94% 29.86 in 4.3 mi West 12.7 mph - N/A Rain Light Rain
6:20 AM 55.4 °F 53.6 °F 94% 29.83 in 3.1 mi WSW 10.4 mph - N/A Rain Light Rain
6:50 AM 55.4 °F 53.6 °F 94% 29.83 in 1.9 mi WSW 12.7 mph - N/A Rain Light Rain
7:20 AM 57.2 °F 55.4 °F 94% 29.83 in 3.1 mi West 16.1 mph - N/A Rain Light Rain
7:50 AM 57.2 °F 55.4 °F 94% 29.83 in 2.5 mi West 15.0 mph - N/A Rain Light Rain
8:20 AM 57.2 °F 55.4 °F 94% 29.83 in 2.5 mi West 18.4 mph - N/A Rain Light Rain
8:50 AM 59.0 °F 57.2 °F 94% 29.80 in 5.0 mi West 18.4 mph 32.2 mph N/A   Light Drizzle
9:20 AM 59.0 °F 57.2 °F 94% 29.80 in 6.2 mi West 19.6 mph - N/A   Mostly Cloudy
9:50 AM 59.0 °F 57.2 °F 94% 29.83 in 4.3 mi West 20.7 mph - N/A Rain Light Rain
10:20 AM 59.0 °F 57.2 °F 94% 29.83 in 6.2 mi WNW 20.7 mph 33.4 mph N/A Rain Light Rain Showers
10:50 AM 59.0 °F 57.2 °F 94% 29.83 in 3.7 mi West 19.6 mph 32.2 mph N/A Rain Light Rain Showers
11:20 AM 59.0 °F 59.0 °F 100% 29.83 in 2.5 mi WNW 17.3 mph 28.8 mph N/A Rain Light Rain Showers
11:50 AM 60.8 °F 59.0 °F 94% 29.86 in 2.8 mi WNW 19.6 mph - N/A Rain Light Rain Showers
12:20 PM 60.8 °F 59.0 °F 94% 29.86 in 2.8 mi WNW 20.7 mph 35.7 mph N/A Rain Light Rain Showers
12:50 PM 60.8 °F 59.0 °F 94% 29.86 in 2.5 mi WNW 18.4 mph - N/A Rain Light Rain Showers
1:20 PM 60.8 °F 59.0 °F 94% 29.86 in 4.3 mi WNW 20.7 mph - N/A Rain Light Rain Showers
1:50 PM 60.8 °F 59.0 °F 94% 29.89 in 2.5 mi WNW 19.6 mph 34.5 mph N/A Rain Light Rain Showers
2:20 PM 60.8 °F 59.0 °F 94% 29.89 in 6.2 mi WNW 19.6 mph - N/A Rain Light Rain Showers
2:50 PM 60.8 °F 59.0 °F 94% 29.89 in 6.2 mi WNW 18.4 mph 32.2 mph N/A   Mostly Cloudy
3:20 PM 60.8 °F 59.0 °F 94% 29.89 in 3.7 mi WNW 20.7 mph - N/A Rain Light Rain Showers
3:50 PM 60.8 °F 59.0 °F 94% 29.89 in 3.7 mi WNW 23.0 mph - N/A Rain Light Rain Showers
4:20 PM 60.8 °F 59.0 °F 94% 29.89 in 5.0 mi WNW 18.4 mph - N/A Rain Light Rain
4:50 PM 60.8 °F 59.0 °F 94% 29.92 in 5.6 mi WNW 16.1 mph - N/A Rain Light Rain
5:20 PM 60.8 °F 59.0 °F 94% 29.92 in 2.8 mi WNW 18.4 mph - N/A   Light Drizzle
5:50 PM 60.8 °F 59.0 °F 94% 29.92 in 2.8 mi WNW 15.0 mph - N/A Rain Light Rain
6:20 PM 59.0 °F 57.2 °F 94% 29.92 in 2.8 mi WNW 17.3 mph - N/A   Light Drizzle
6:50 PM 59.0 °F 57.2 °F 94% 29.92 in 2.8 mi WNW 15.0 mph - N/A Rain Light Rain Showers
7:20 PM 59.0 °F 57.2 °F 94% 29.95 in 5.0 mi WNW 20.7 mph - N/A   Mostly Cloudy
7:50 PM 59.0 °F 57.2 °F 94% 29.95 in 6.2 mi WNW 18.4 mph - N/A   Mostly Cloudy
8:20 PM 59.0 °F 57.2 °F 94% 29.95 in 6.2 mi WNW 18.4 mph - N/A   Light Drizzle
8:50 PM 59.0 °F 57.2 °F 94% 29.98 in 6.2 mi WNW 15.0 mph - N/A   Light Drizzle
9:20 PM 59.0 °F 57.2 °F 94% 29.98 in 4.3 mi WNW 15.0 mph - N/A   Light Drizzle
9:50 PM 59.0 °F 57.2 °F 94% 29.98 in 4.3 mi WNW 12.7 mph - N/A   Light Drizzle
10:20 PM 59.0 °F 57.2 °F 94% 30.01 in 1.9 mi WNW 12.7 mph - N/A   Drizzle
10:50 PM 59.0 °F 57.2 °F 94% 30.01 in 3.1 mi WNW 13.8 mph - N/A   Light Drizzle
11:20 PM 59.0 °F 57.2 °F 94% 30.01 in 6.2 mi WNW 13.8 mph - N/A   Mostly Cloudy
11:50 PM 59.0 °F 57.2 °F 94% 30.04 in 6.2 mi WNW 15.0 mph - N/A   Mostly Cloudy